| time (UTC) | temp F | wind direction | speed MPH | gust MPH | rain 1hr in | rain 24hr in | rain mn in | humidity % | barometer mb |
| 20260507224518 | 66 | 217 | 0.0 | 8.0 | 0.00 | 0.00 | 0.00 | 44 | 1014.5 |
| 20260507223004 | 65 | 239 | 2.0 | 10.0 | 0.00 | 0.00 | 0.00 | 43 | 1014.7 |
| 20260507221542 | 65 | 224 | 0.0 | 5.0 | 0.00 | 0.00 | 0.00 | 45 | 1014.9 |
| 20260507220015 | 66 | 263 | 6.0 | 12.0 | 0.00 | 0.00 | 0.00 | 42 | 1014.8 |
| 20260507214559 | 66 | 265 | 0.0 | 8.0 | 0.00 | 0.00 | 0.00 | 43 | 1014.9 |
| 20260507213041 | 65 | 250 | 4.0 | 13.0 | 0.00 | 0.00 | 0.00 | 43 | 1014.9 |
| 20260507211520 | 66 | 215 | 6.0 | 12.0 | 0.00 | 0.00 | 0.00 | 39 | 1015.1 |
| 20260507210005 | 67 | 194 | 3.0 | 10.0 | 0.00 | 0.00 | 0.00 | 39 | 1015.2 |
| 20260507204543 | 66 | 186 | 1.0 | 10.0 | 0.00 | 0.00 | 0.00 | 37 | 1015.5 |
| 20260507203024 | 65 | 255 | 0.0 | 14.0 | 0.00 | 0.00 | 0.00 | 40 | 1015.8 |
| 20260507201508 | 65 | 238 | 0.0 | 10.0 | 0.00 | 0.00 | 0.00 | 39 | 1016.0 |
| 20260507200051 | 65 | 250 | 0.0 | 5.0 | 0.00 | 0.00 | 0.00 | 39 | 1016.2 |
| 20260507194528 | 66 | 228 | 0.0 | 2.0 | 0.00 | 0.00 | 0.00 | 37 | 1016.4 |
| 20260507193006 | 65 | 264 | 3.0 | 7.0 | 0.00 | 0.00 | 0.00 | 39 | 1016.6 |
| 20260507191552 | 64 | 233 | 0.0 | 10.0 | 0.00 | 0.00 | 0.00 | 43 | 1016.8 |
| 20260507190032 | 63 | 224 | 1.0 | 9.0 | 0.00 | 0.00 | 0.00 | 40 | 1016.9 |
| 20260507184513 | 63 | 248 | 0.0 | 6.0 | 0.00 | 0.00 | 0.00 | 40 | 1016.8 |
| 20260507183049 | 63 | 254 | 0.0 | 9.0 | 0.00 | 0.00 | 0.00 | 38 | 1017.1 |
| 20260507181527 | 62 | 216 | 5.0 | 12.0 | 0.00 | 0.00 | 0.00 | 35 | 1017.2 |
| 20260507180014 | 63 | 206 | 2.0 | 6.0 | 0.00 | 0.00 | 0.00 | 39 | 1017.5 |
| 20260507174550 | 63 | 292 | 0.0 | 7.0 | 0.00 | 0.00 | 0.00 | 41 | 1017.7 |
| 20260507173027 | 61 | 224 | 4.0 | 9.0 | 0.00 | 0.00 | 0.00 | 38 | 1018.2 |
| 20260507171602 | 62 | 200 | 2.0 | 9.0 | 0.00 | 0.00 | 0.00 | 39 | 1018.4 |
| 20260507171506 | 62 | 177 | 2.0 | 9.0 | 0.00 | 0.00 | 0.00 | 40 | 1018.4 |
| 20260507170048 | 62 | 259 | 0.0 | 9.0 | 0.00 | 0.00 | 0.00 | 38 | 1018.6 |
| 20260507164528 | 60 | 306 | 0.0 | 9.0 | 0.00 | 0.00 | 0.00 | 43 | 1018.7 |
| 20260507163019 | 60 | 191 | 0.0 | 8.0 | 0.00 | 0.00 | 0.00 | 42 | 1018.8 |
| 20260507161552 | 61 | 222 | 1.0 | 6.0 | 0.00 | 0.00 | 0.00 | 39 | 1018.9 |
| 20260507160034 | 60 | 222 | 0.0 | 5.0 | 0.00 | 0.00 | 0.00 | 43 | 1019.0 |
| 20260507154512 | 58 | 96 | 0.0 | 7.0 | 0.00 | 0.00 | 0.00 | 46 | 1019.2 |
| 20260507153054 | 59 | 157 | 0.0 | 4.0 | 0.00 | 0.00 | 0.00 | 41 | 1019.3 |
| 20260507151536 | 59 | 120 | 1.0 | 6.0 | 0.00 | 0.00 | 0.00 | 42 | 1019.2 |
| 20260507150018 | 58 | 237 | 0.0 | 7.0 | 0.00 | 0.00 | 0.00 | 44 | 1019.2 |
| 20260507144556 | 58 | 223 | 0.0 | 7.0 | 0.00 | 0.00 | 0.00 | 48 | 1019.3 |
| 20260507143040 | 56 | 203 | 2.0 | 6.0 | 0.00 | 0.00 | 0.00 | 48 | 1019.6 |
| 20260507141518 | 56 | 203 | 0.0 | 4.0 | 0.00 | 0.00 | 0.00 | 49 | 1019.5 |
| 20260507140111 | 56 | 184 | 0.0 | 5.0 | 0.00 | 0.00 | 0.00 | 52 | 1019.6 |
| 20260507140002 | 56 | 241 | 0.0 | 5.0 | 0.00 | 0.00 | 0.00 | 54 | 1019.6 |
| 20260507134538 | 54 | 174 | 0.0 | 4.0 | 0.00 | 0.00 | 0.00 | 58 | 1019.6 |
| 20260507133021 | 52 | 113 | 0.0 | 0.0 | 0.00 | 0.00 | 0.00 | 76 | 1019.6 |
| 20260507131602 | 50 | 87 | 0.0 | 1.0 | 0.00 | 0.00 | 0.00 | 80 | 1019.6 |
| 20260507130031 | 47 | 121 | 0.0 | 0.0 | 0.00 | 0.00 | 0.00 | 91 | 1019.7 |
| 20260507124515 | 44 | 121 | 0.0 | 0.0 | 0.00 | 0.00 | 0.00 | 93 | 1019.6 |
| 20260507123040 | 41 | 127 | 0.0 | 0.0 | 0.00 | 0.00 | 0.00 | 93 | 1019.5 |
| 20260507121522 | 41 | 97 | 0.0 | 0.0 | 0.00 | 0.00 | 0.00 | 92 | 1019.4 |
| 20260507120058 | 40 | 97 | 0.0 | 0.0 | 0.00 | 0.00 | 0.00 | 92 | 1019.1 |
| 20260507114540 | 39 | 97 | 0.0 | 0.0 | 0.00 | 0.00 | 0.00 | 91 | 1019.1 |
| 20260507113023 | 39 | 97 | 0.0 | 0.0 | 0.00 | 0.00 | 0.00 | 92 | 1018.9 |
| 20260507111600 | 39 | 97 | 0.0 | 0.0 | 0.00 | 0.00 | 0.00 | 92 | 1018.9 |
| 20260507111504 | 39 | 97 | 0.0 | 0.0 | 0.00 | 0.00 | 0.00 | 92 | 1018.9 |
| 20260507110052 | 38 | 97 | 0.0 | 0.0 | 0.00 | 0.01 | 0.00 | 92 | 1018.7 |
| 20260507104528 | 38 | 97 | 0.0 | 0.0 | 0.00 | 0.01 | 0.00 | 92 | 1018.7 |
| 20260507103011 | 38 | 97 | 0.0 | 0.0 | 0.00 | 0.01 | 0.00 | 91 | 1018.6 |
| 20260507101601 | 38 | 97 | 0.0 | 0.0 | 0.00 | 0.01 | 0.00 | 90 | 1018.7 |
| 20260507100035 | 38 | 152 | 0.0 | 0.0 | 0.00 | 0.02 | 0.00 | 90 | 1018.7 |
| 20260507094514 | 38 | 152 | 0.0 | 0.0 | 0.00 | 0.02 | 0.00 | 89 | 1018.9 |
| 20260507093048 | 38 | 152 | 0.0 | 0.0 | 0.00 | 0.02 | 0.00 | 87 | 1018.8 |
| 20260507091548 | 38 | 152 | 0.0 | 0.0 | 0.00 | 0.02 | 0.00 | 85 | 1018.5 |
| 20260507090006 | 38 | 152 | 0.0 | 0.0 | 0.00 | 0.02 | 0.00 | 86 | 1018.6 |
| 20260507084549 | 38 | 124 | 0.0 | 0.0 | 0.00 | 0.02 | 0.00 | 87 | 1018.5 |
| 20260507083036 | 38 | 124 | 0.0 | 1.0 | 0.00 | 0.02 | 0.00 | 88 | 1018.5 |
| 20260507081523 | 38 | 172 | 0.0 | 0.0 | 0.00 | 0.02 | 0.00 | 87 | 1018.6 |
| 20260507080055 | 38 | 185 | 0.0 | 0.0 | 0.00 | 0.02 | 0.00 | 84 | 1018.6 |
| 20260507080000 | 39 | 185 | 0.0 | 0.0 | 0.00 | 0.02 | 0.00 | 83 | 1018.6 |
| 20260507074538 | 40 | 255 | 0.0 | 0.0 | 0.00 | 0.02 | 0.00 | 79 | 1018.9 |
| 20260507073022 | 40 | 255 | 0.0 | 0.0 | 0.00 | 0.02 | 0.00 | 78 | 1018.9 |
| 20260507071600 | 41 | 255 | 0.0 | 0.0 | 0.00 | 0.02 | 0.00 | 79 | 1019.1 |
| 20260507070055 | 41 | 255 | 0.0 | 0.0 | 0.00 | 0.02 | 0.00 | 78 | 1019.1 |
| 20260507064512 | 41 | 255 | 0.0 | 0.0 | 0.00 | 0.02 | 0.00 | 78 | 1019.2 |
| 20260507063046 | 44 | 255 | 0.0 | 0.0 | 0.00 | 0.02 | 0.00 | 71 | 1019.0 |
| 20260507061532 | 44 | 255 | 0.0 | 0.0 | 0.00 | 0.02 | 0.00 | 68 | 1019.0 |
| 20260507060008 | 44 | 255 | 0.0 | 0.0 | 0.00 | 0.02 | 0.02 | 69 | 1019.1 |
| 20260507054555 | 45 | 255 | 0.0 | 0.0 | 0.00 | 0.02 | 0.02 | 69 | 1019.3 |
| 20260507053028 | 45 | 255 | 0.0 | 0.0 | 0.00 | 0.02 | 0.02 | 69 | 1019.2 |
| 20260507051512 | 46 | 275 | 0.0 | 0.0 | 0.00 | 0.02 | 0.02 | 67 | 1019.0 |
| 20260507050050 | 46 | 275 | 0.0 | 0.0 | 0.00 | 0.02 | 0.02 | 64 | 1018.9 |
| 20260507044540 | 47 | 281 | 0.0 | 0.0 | 0.00 | 0.02 | 0.02 | 63 | 1019.0 |
| 20260507043012 | 47 | 281 | 0.0 | 0.0 | 0.00 | 0.02 | 0.02 | 63 | 1018.8 |
| 20260507041548 | 48 | 288 | 0.0 | 0.0 | 0.00 | 0.02 | 0.02 | 61 | 1018.9 |
| 20260507040034 | 48 | 308 | 0.0 | 0.0 | 0.00 | 0.02 | 0.02 | 61 | 1018.9 |
| 20260507034520 | 48 | 302 | 0.0 | 0.0 | 0.00 | 0.02 | 0.02 | 61 | 1018.8 |
| 20260507033054 | 49 | 307 | 0.0 | 0.0 | 0.00 | 0.02 | 0.02 | 61 | 1018.8 |
| 20260507031534 | 49 | 291 | 0.0 | 0.0 | 0.00 | 0.02 | 0.02 | 60 | 1018.7 |
| 20260507030014 | 50 | 318 | 0.0 | 0.0 | 0.00 | 0.03 | 0.02 | 60 | 1018.6 |
| 20260507024607 | 50 | 324 | 0.0 | 0.0 | 0.00 | 0.03 | 0.02 | 58 | 1018.4 |
| 20260507023043 | 51 | 325 | 0.0 | 0.0 | 0.00 | 0.03 | 0.02 | 58 | 1018.4 |
| 20260507021528 | 51 | 304 | 0.0 | 0.0 | 0.00 | 0.03 | 0.02 | 57 | 1018.3 |
| 20260507020014 | 52 | 316 | 0.0 | 0.0 | 0.00 | 0.08 | 0.02 | 56 | 1018.2 |
| 20260507014608 | 53 | 318 | 0.0 | 0.0 | 0.00 | 0.08 | 0.02 | 54 | 1018.0 |
| 20260507013035 | 54 | 309 | 0.0 | 0.0 | 0.00 | 0.08 | 0.02 | 53 | 1017.8 |
| 20260507011513 | 54 | 311 | 0.0 | 0.0 | 0.00 | 0.08 | 0.02 | 54 | 1017.6 |
| 20260507010108 | 55 | 309 | 0.0 | 0.0 | 0.00 | 0.10 | 0.02 | 53 | 1017.6 |
| 20260507004543 | 55 | 315 | 0.0 | 0.0 | 0.00 | 0.10 | 0.02 | 51 | 1017.5 |
| 20260507003024 | 56 | 338 | 0.0 | 0.0 | 0.00 | 0.10 | 0.02 | 52 | 1017.2 |
| 20260507001515 | 56 | 334 | 0.0 | 1.0 | 0.00 | 0.10 | 0.02 | 49 | 1017.1 |
| 20260507000047 | 57 | 359 | 0.0 | 1.0 | 0.00 | 0.11 | 0.02 | 48 | 1016.6 |
| 20260506234533 | 58 | 333 | 0.0 | 0.0 | 0.00 | 0.11 | 0.02 | 46 | 1016.5 |
| 20260506233016 | 58 | 18 | 0.0 | 10.0 | 0.00 | 0.11 | 0.02 | 49 | 1016.5 |
| 20260506231600 | 58 | 338 | 0.0 | 10.0 | 0.00 | 0.11 | 0.02 | 48 | 1016.6 |
| 20260506231504 | 58 | 10 | 0.0 | 10.0 | 0.00 | 0.11 | 0.02 | 50 | 1016.6 |
| 20260506230043 | 59 | 336 | 0.0 | 1.0 | 0.00 | 0.12 | 0.02 | 47 | 1016.6 |